Location: Haulchin
(50.3172°N, 3.4360°E)
Time: 20:20:25
(UTC+00:00)

SL-16 R/B - Pass Details

Date: 23 May 2024
Orbit: 985 x 1007 km, 99.7° (Epoch: 14 June)

Event Time Altitude Azimuth Distance (km) Brightness Sun altitude
Rises 01:48:25 0° 151° (SSE) 3,722 5.2 -13.8°
Reaches altitude 10° 01:50:53 10° 149° (SSE) 2,777 4.6 -13.6°
Maximum altitude 01:57:05 67° 68° (ENE) 1,088 3.0 -13.1°
Drops below altitude 10° 02:03:18 10° 348° (NNW) 2,794 5.6 -12.6°
Sets 02:05:48 0° 346° (NNW) 3,746 6.2 -12.3°
